User: anonymous   Login
Location: Demmingen
(48.6757°N, 10.4375°E)
Time: 18:39:10
(UTC+00:00)
Language:

Cosmos 676 Rocket - Orbit

View from above orbital plane
View from above orbital plane
View from above satellite
View from above satellite

Ground track
Ground track

The orbit data is extracted from the following two-line orbital elements,

1  7434U 74071B   24205.54315405  .00000745  00000-0  25682-3 0  9999
2  7434  74.0464 129.7775 0019544 122.0450 238.2605 14.37501148609184
Epoch (UTC): 23 July 2024 13:02:08
Eccentricity: 0.0019544
inclination: 74.0464°
perigee height: 753 km
apogee height: 781 km
right ascension of ascending node: 129.7775°
argument of perigee: 122.0450°
revolutions per day: 14.37501148
mean anomaly at epoch: 238.2605°
orbit number at epoch: 60918

The dashed part of the orbit path shows where the satellite is in the earth's shadow,  

DLR